Time,TemperatureF,DewpointF,PressureIn,WindDirection,WindDirectionDegrees,WindSpeedMPH,WindSpeedGustMPH,Humidity,HourlyPrecipIn,Conditions,Clouds,dailyrainin,SoftwareType,DateUTC
2013-05-14 00:02:00,53.0,38.0,-100.00,North,5,8.0,10.0,56,-99.99,,,-99.99,,2013-05-14 05:02:00,
2013-05-14 00:12:00,53.0,38.0,-100.00,North,0,9.0,10.0,56,-99.99,,,-99.99,,2013-05-14 05:12:00,
2013-05-14 00:22:00,54.0,38.0,-100.00,North,0,10.0,14.0,55,-99.99,,,-99.99,,2013-05-14 05:22:00,
2013-05-14 00:32:00,54.0,38.0,-100.00,North,0,10.0,14.0,55,-99.99,,,-99.99,,2013-05-14 05:32:00,
2013-05-14 00:42:00,55.0,38.0,-100.00,North,10,11.0,14.0,52,-99.99,,,-99.99,,2013-05-14 05:42:00,
2013-05-14 00:52:00,55.0,38.0,-100.00,North,0,11.0,14.0,52,-99.99,,,-99.99,,2013-05-14 05:52:00,
2013-05-14 01:01:00,55.0,38.0,-100.00,North,0,11.0,14.0,52,-99.99,,,-99.99,,2013-05-14 06:01:00,
2013-05-14 01:12:00,53.0,38.0,-100.00,North,0,10.0,14.0,56,-99.99,,,-99.99,,2013-05-14 06:12:00,
2013-05-14 01:22:00,53.0,38.0,-100.00,North,0,10.0,14.0,57,-99.99,,,-99.99,,2013-05-14 06:22:00,
2013-05-14 01:32:00,53.0,38.0,-100.00,North,0,10.0,14.0,57,-99.99,,,-99.99,,2013-05-14 06:32:00,
2013-05-14 01:42:00,55.0,39.0,-100.00,North,0,6.0,13.0,55,-99.99,,,-99.99,,2013-05-14 06:42:00,
2013-05-14 01:52:00,55.0,38.0,-100.00,North,0,6.0,12.0,54,-99.99,,,-99.99,,2013-05-14 06:52:00,
2013-05-14 02:02:00,55.0,38.0,-100.00,North,0,6.0,12.0,54,-99.99,,,-99.99,,2013-05-14 07:02:00,
2013-05-14 02:11:00,55.0,39.0,-100.00,North,0,9.0,15.0,55,-99.99,,,-99.99,,2013-05-14 07:11:00,
2013-05-14 02:21:00,55.0,39.0,-100.00,North,5,11.0,16.0,55,-99.99,,,-99.99,,2013-05-14 07:21:00,
2013-05-14 02:32:00,55.0,39.0,-100.00,North,5,11.0,16.0,55,-99.99,,,-99.99,,2013-05-14 07:32:00,
2013-05-14 02:42:00,55.0,39.0,-100.00,North,0,11.0,17.0,55,-99.99,,,-99.99,,2013-05-14 07:42:00,
2013-05-14 02:52:00,54.0,40.0,-100.00,North,0,8.0,18.0,57,-99.99,,,-99.99,,2013-05-14 07:52:00,
2013-05-14 03:02:00,54.0,40.0,-100.00,North,0,8.0,18.0,57,-99.99,,,-99.99,,2013-05-14 08:02:00,
2013-05-14 03:11:00,54.0,39.0,-100.00,North,0,9.0,14.0,57,-99.99,,,-99.99,,2013-05-14 08:11:00,
2013-05-14 03:21:00,54.0,40.0,-100.00,North,5,9.0,15.0,58,-99.99,,,-99.99,,2013-05-14 08:21:00,
2013-05-14 03:32:00,54.0,40.0,-100.00,North,5,9.0,15.0,58,-99.99,,,-99.99,,2013-05-14 08:32:00,
2013-05-14 03:42:00,54.0,40.0,-100.00,North,0,11.0,16.0,58,-99.99,,,-99.99,,2013-05-14 08:42:00,
2013-05-14 03:52:00,54.0,40.0,-100.00,North,10,9.0,16.0,58,-99.99,,,-99.99,,2013-05-14 08:52:00,
2013-05-14 04:02:00,54.0,40.0,-100.00,North,10,9.0,16.0,58,-99.99,,,-99.99,,2013-05-14 09:02:00,
2013-05-14 04:11:00,54.0,39.0,-100.00,North,0,9.0,15.0,57,-99.99,,,-99.99,,2013-05-14 09:11:00,
2013-05-14 04:22:00,54.0,39.0,-100.00,North,0,8.0,15.0,57,-99.99,,,-99.99,,2013-05-14 09:22:00,
2013-05-14 04:32:00,54.0,39.0,-100.00,North,0,8.0,15.0,57,-99.99,,,-99.99,,2013-05-14 09:32:00,
2013-05-14 04:44:00,54.0,40.0,-100.00,North,0,8.0,14.0,58,-99.99,,,-99.99,,2013-05-14 09:44:00,
2013-05-14 04:54:00,54.0,40.0,-100.00,North,0,14.0,19.0,59,-99.99,,,-99.99,,2013-05-14 09:54:00,
2013-05-14 05:04:00,54.0,40.0,-100.00,North,0,14.0,19.0,59,-99.99,,,-99.99,,2013-05-14 10:04:00,
2013-05-14 05:14:00,53.0,40.0,-100.00,North,0,11.0,16.0,60,-99.99,,,-99.99,,2013-05-14 10:14:00,
2013-05-14 05:25:00,53.0,40.0,-100.00,North,5,9.0,16.0,62,-99.99,,,-99.99,,2013-05-14 10:25:00,
2013-05-14 05:33:00,53.0,40.0,-100.00,North,5,9.0,16.0,62,-99.99,,,-99.99,,2013-05-14 10:33:00,
2013-05-14 05:42:00,53.0,41.0,-100.00,North,0,10.0,16.0,64,-99.99,,,-99.99,,2013-05-14 10:42:00,
2013-05-14 05:52:00,53.0,41.0,-100.00,North,0,10.0,14.0,66,-99.99,,,-99.99,,2013-05-14 10:52:00,
2013-05-14 06:02:00,53.0,41.0,-100.00,North,0,10.0,14.0,66,-99.99,,,-99.99,,2013-05-14 11:02:00,
2013-05-14 06:11:00,52.0,42.0,-100.00,North,0,11.0,16.0,67,-99.99,,,-99.99,,2013-05-14 11:11:00,
2013-05-14 06:22:00,52.0,42.0,-100.00,North,0,11.0,16.0,69,-99.99,,,-99.99,,2013-05-14 11:22:00,
2013-05-14 06:32:00,52.0,42.0,-100.00,North,0,11.0,16.0,69,-99.99,,,-99.99,,2013-05-14 11:32:00,
2013-05-14 06:43:00,52.0,43.0,-100.00,North,0,11.0,16.0,70,-99.99,,,-99.99,,2013-05-14 11:43:00,
2013-05-14 06:53:00,53.0,44.0,-100.00,North,0,14.0,18.0,71,-99.99,,,-99.99,,2013-05-14 11:53:00,
2013-05-14 07:02:00,53.0,44.0,-100.00,North,0,14.0,18.0,71,-99.99,,,-99.99,,2013-05-14 12:02:00,
2013-05-14 07:12:00,54.0,44.0,-100.00,North,0,14.0,18.0,71,-99.99,,,-99.99,,2013-05-14 12:12:00,
2013-05-14 07:21:00,55.0,45.0,-100.00,North,0,15.0,20.0,70,-99.99,,,-99.99,,2013-05-14 12:21:00,
2013-05-14 07:32:00,55.0,45.0,-100.00,North,0,15.0,20.0,70,-99.99,,,-99.99,,2013-05-14 12:32:00,
2013-05-14 07:42:00,57.0,46.0,-100.00,North,0,13.0,18.0,68,-99.99,,,-99.99,,2013-05-14 12:42:00,
2013-05-14 07:52:00,58.0,48.0,-100.00,North,0,14.0,19.0,67,-99.99,,,-99.99,,2013-05-14 12:52:00,
2013-05-14 08:01:00,58.0,48.0,-100.00,North,0,14.0,19.0,67,-99.99,,,-99.99,,2013-05-14 13:01:00,
2013-05-14 08:11:00,60.0,48.0,-100.00,North,0,16.0,24.0,65,-99.99,,,-99.99,,2013-05-14 13:11:00,
2013-05-14 08:22:00,61.0,49.0,-100.00,North,0,14.0,21.0,63,-99.99,,,-99.99,,2013-05-14 13:22:00,
2013-05-14 08:32:00,61.0,49.0,-100.00,North,0,14.0,21.0,63,-99.99,,,-99.99,,2013-05-14 13:32:00,
2013-05-14 08:41:00,62.0,49.0,-100.00,North,0,19.0,24.0,62,-99.99,,,-99.99,,2013-05-14 13:41:00,
2013-05-14 08:52:00,64.0,50.0,-100.00,North,0,18.0,24.0,61,-99.99,,,-99.99,,2013-05-14 13:52:00,
2013-05-14 09:01:00,64.0,50.0,-100.00,North,0,18.0,24.0,61,-99.99,,,-99.99,,2013-05-14 14:01:00,
2013-05-14 09:11:00,65.0,51.0,-100.00,North,10,16.0,24.0,60,-99.99,,,-99.99,,2013-05-14 14:11:00,
2013-05-14 09:22:00,67.0,52.0,-100.00,North,5,20.0,30.0,58,-99.99,,,-99.99,,2013-05-14 14:22:00,
2013-05-14 09:32:00,67.0,52.0,-100.00,North,5,20.0,30.0,58,-99.99,,,-99.99,,2013-05-14 14:32:00,
2013-05-14 09:41:00,68.0,52.0,-100.00,North,5,15.0,24.0,57,-99.99,,,-99.99,,2013-05-14 14:41:00,
2013-05-14 09:52:00,69.0,52.0,-100.00,North,5,19.0,25.0,55,-99.99,,,-99.99,,2013-05-14 14:52:00,
2013-05-14 10:01:00,69.0,52.0,-100.00,North,5,19.0,25.0,55,-99.99,,,-99.99,,2013-05-14 15:01:00,
2013-05-14 10:12:00,70.0,53.0,-100.00,North,5,19.0,27.0,55,-99.99,,,-99.99,,2013-05-14 15:12:00,
2013-05-14 10:22:00,72.0,54.0,-100.00,North,5,16.0,23.0,53,-99.99,,,-99.99,,2013-05-14 15:22:00,
2013-05-14 10:33:00,72.0,54.0,-100.00,North,5,16.0,23.0,53,-99.99,,,-99.99,,2013-05-14 15:33:00,
2013-05-14 10:43:00,72.0,54.0,-100.00,North,5,18.0,26.0,52,-99.99,,,-99.99,,2013-05-14 15:43:00,
2013-05-14 10:53:00,74.0,54.0,-100.00,North,5,18.0,24.0,50,-99.99,,,-99.99,,2013-05-14 15:53:00,
2013-05-14 11:02:00,74.0,54.0,-100.00,North,5,18.0,24.0,50,-99.99,,,-99.99,,2013-05-14 16:02:00,
2013-05-14 11:12:00,75.0,54.0,-100.00,North,0,15.0,24.0,48,-99.99,,,-99.99,,2013-05-14 16:12:00,
2013-05-14 11:23:00,76.0,54.0,-100.00,North,0,15.0,21.0,47,-99.99,,,-99.99,,2013-05-14 16:23:00,
2013-05-14 11:33:00,76.0,54.0,-100.00,North,0,15.0,21.0,47,-99.99,,,-99.99,,2013-05-14 16:33:00,
2013-05-14 11:43:00,77.0,55.0,-100.00,NE,45,16.0,24.0,46,-99.99,,,-99.99,,2013-05-14 16:43:00,
2013-05-14 11:54:00,78.0,54.0,-100.00,NE,35,12.0,19.0,44,-99.99,,,-99.99,,2013-05-14 16:54:00,
2013-05-14 12:03:00,78.0,54.0,-100.00,NE,35,12.0,19.0,44,-99.99,,,-99.99,,2013-05-14 17:03:00,
2013-05-14 12:13:00,79.0,55.0,-100.00,NNE,15,15.0,21.0,43,-99.99,,,-99.99,,2013-05-14 17:13:00,
2013-05-14 12:24:00,80.0,54.0,-100.00,North,0,15.0,20.0,41,-99.99,,,-99.99,,2013-05-14 17:24:00,
2013-05-14 12:33:00,80.0,54.0,-100.00,North,0,15.0,20.0,41,-99.99,,,-99.99,,2013-05-14 17:33:00,
2013-05-14 12:43:00,81.0,54.0,-100.00,North,0,13.0,21.0,40,-99.99,,,-99.99,,2013-05-14 17:43:00,
2013-05-14 12:52:00,83.0,54.0,-100.00,North,0,15.0,21.0,38,-99.99,,,-99.99,,2013-05-14 17:52:00,
2013-05-14 13:02:00,83.0,54.0,-100.00,North,0,15.0,21.0,38,-99.99,,,-99.99,,2013-05-14 18:02:00,
2013-05-14 13:12:00,83.0,54.0,-100.00,North,0,15.0,24.0,37,-99.99,,,-99.99,,2013-05-14 18:12:00,
2013-05-14 13:22:00,85.0,54.0,-100.00,North,10,13.0,20.0,35,-99.99,,,-99.99,,2013-05-14 18:22:00,
2013-05-14 13:32:00,85.0,54.0,-100.00,North,10,13.0,20.0,35,-99.99,,,-99.99,,2013-05-14 18:32:00,
2013-05-14 13:42:00,86.0,54.0,-100.00,North,5,14.0,21.0,34,-99.99,,,-99.99,,2013-05-14 18:42:00,
2013-05-14 13:52:00,87.0,54.0,-100.00,North,10,11.0,21.0,32,-99.99,,,-99.99,,2013-05-14 18:52:00,
2013-05-14 14:01:00,87.0,54.0,-100.00,North,10,11.0,21.0,32,-99.99,,,-99.99,,2013-05-14 19:01:00,
2013-05-14 14:12:00,87.0,52.0,-100.00,North,0,9.0,19.0,30,-99.99,,,-99.99,,2013-05-14 19:12:00,
2013-05-14 14:22:00,90.0,52.0,-100.00,ENE,60,13.0,19.0,28,-99.99,,,-99.99,,2013-05-14 19:22:00,
2013-05-14 14:32:00,90.0,52.0,-100.00,ENE,60,13.0,19.0,28,-99.99,,,-99.99,,2013-05-14 19:32:00,
2013-05-14 14:42:00,90.0,52.0,-100.00,ENE,60,11.0,19.0,28,-99.99,,,-99.99,,2013-05-14 19:42:00,
2013-05-14 14:53:00,90.0,51.0,-100.00,NE,40,11.0,17.0,26,-99.99,,,-99.99,,2013-05-14 19:53:00,
2013-05-14 15:02:00,90.0,51.0,-100.00,NE,40,11.0,17.0,26,-99.99,,,-99.99,,2013-05-14 20:02:00,
2013-05-14 15:11:00,91.0,49.0,-100.00,NE,50,4.0,15.0,24,-99.99,,,-99.99,,2013-05-14 20:11:00,
2013-05-14 15:23:00,92.0,49.0,-100.00,NE,50,9.0,14.0,23,-99.99,,,-99.99,,2013-05-14 20:23:00,
2013-05-14 15:33:00,92.0,49.0,-100.00,NE,50,9.0,14.0,23,-99.99,,,-99.99,,2013-05-14 20:33:00,
2013-05-14 15:44:00,93.0,48.0,-100.00,ENE,60,5.0,11.0,21,-99.99,,,-99.99,,2013-05-14 20:44:00,
2013-05-14 15:52:00,94.0,47.0,-100.00,NE,40,6.0,11.0,20,-99.99,,,-99.99,,2013-05-14 20:52:00,
2013-05-14 16:03:00,94.0,47.0,-100.00,NE,40,6.0,11.0,20,-99.99,,,-99.99,,2013-05-14 21:03:00,
2013-05-14 16:12:00,94.0,47.0,-100.00,NE,40,10.0,14.0,20,-99.99,,,-99.99,,2013-05-14 21:12:00,
2013-05-14 16:23:00,95.0,47.0,-100.00,NE,45,10.0,14.0,20,-99.99,,,-99.99,,2013-05-14 21:23:00,
2013-05-14 16:33:00,95.0,47.0,-100.00,NE,45,10.0,14.0,20,-99.99,,,-99.99,,2013-05-14 21:33:00,
2013-05-14 16:43:00,95.0,47.0,-100.00,NE,45,10.0,14.0,20,-99.99,,,-99.99,,2013-05-14 21:43:00,
2013-05-14 16:53:00,95.0,47.0,-100.00,NNE,25,3.0,10.0,19,-99.99,,,-99.99,,2013-05-14 21:53:00,
2013-05-14 17:03:00,95.0,47.0,-100.00,NNE,25,3.0,10.0,19,-99.99,,,-99.99,,2013-05-14 22:03:00,
2013-05-14 17:13:00,93.0,46.0,-100.00,NNE,15,9.0,15.0,20,-99.99,,,-99.99,,2013-05-14 22:13:00,
2013-05-14 17:24:00,94.0,45.0,-100.00,NNE,25,9.0,14.0,19,-99.99,,,-99.99,,2013-05-14 22:24:00,
2013-05-14 17:34:00,94.0,45.0,-100.00,NNE,25,9.0,14.0,19,-99.99,,,-99.99,,2013-05-14 22:34:00,
2013-05-14 17:45:00,93.0,46.0,-100.00,North,0,13.0,20.0,20,-99.99,,,-99.99,,2013-05-14 22:45:00,
2013-05-14 17:54:00,92.0,46.0,-100.00,North,5,9.0,20.0,20,-99.99,,,-99.99,,2013-05-14 22:54:00,
2013-05-14 18:03:00,92.0,46.0,-100.00,North,5,9.0,20.0,20,-99.99,,,-99.99,,2013-05-14 23:03:00,
2013-05-14 18:12:00,92.0,46.0,-100.00,North,0,13.0,18.0,21,-99.99,,,-99.99,,2013-05-14 23:12:00,
2013-05-14 18:21:00,92.0,47.0,-100.00,North,0,13.0,20.0,22,-99.99,,,-99.99,,2013-05-14 23:21:00,
2013-05-14 18:32:00,92.0,47.0,-100.00,North,0,13.0,20.0,22,-99.99,,,-99.99,,2013-05-14 23:32:00,
2013-05-14 18:44:00,90.0,49.0,-100.00,North,5,19.0,23.0,24,-99.99,,,-99.99,,2013-05-14 23:44:00,
2013-05-14 18:53:00,90.0,48.0,-100.00,NNE,30,12.0,21.0,24,-99.99,,,-99.99,,2013-05-14 23:53:00,
2013-05-14 19:02:00,90.0,48.0,-100.00,NNE,30,12.0,21.0,24,-99.99,,,-99.99,,2013-05-15 00:02:00,
2013-05-14 19:11:00,89.0,51.0,-100.00,NNE,25,13.0,24.0,27,-99.99,,,-99.99,,2013-05-15 00:11:00,
2013-05-14 19:21:00,89.0,51.0,-100.00,NNE,25,16.0,24.0,28,-99.99,,,-99.99,,2013-05-15 00:21:00,
2013-05-14 19:32:00,89.0,51.0,-100.00,NNE,25,16.0,24.0,28,-99.99,,,-99.99,,2013-05-15 00:32:00,
2013-05-14 19:42:00,89.0,51.0,-100.00,NNE,25,16.0,24.0,28,-99.99,,,-99.99,,2013-05-15 00:42:00,
2013-05-14 19:52:00,86.0,55.0,-100.00,NE,35,17.0,21.0,35,-99.99,,,-99.99,,2013-05-15 00:52:00,
2013-05-14 20:01:00,86.0,55.0,-100.00,NE,35,17.0,21.0,35,-99.99,,,-99.99,,2013-05-15 01:01:00,
2013-05-14 20:11:00,85.0,55.0,-100.00,NE,35,15.0,20.0,36,-99.99,,,-99.99,,2013-05-15 01:11:00,
2013-05-14 20:22:00,84.0,55.0,-100.00,NNE,30,16.0,20.0,38,-99.99,,,-99.99,,2013-05-15 01:22:00,
2013-05-14 20:32:00,84.0,55.0,-100.00,NNE,30,16.0,20.0,38,-99.99,,,-99.99,,2013-05-15 01:32:00,
2013-05-14 20:42:00,83.0,55.0,-100.00,NE,35,14.0,19.0,39,-99.99,,,-99.99,,2013-05-15 01:42:00,
2013-05-14 20:52:00,82.0,55.0,-100.00,NNE,30,15.0,21.0,40,-99.99,,,-99.99,,2013-05-15 01:52:00,
2013-05-14 21:02:00,82.0,55.0,-100.00,NNE,30,15.0,21.0,40,-99.99,,,-99.99,,2013-05-15 02:02:00,
2013-05-14 21:11:00,81.0,56.0,-100.00,NNE,30,16.0,21.0,42,-99.99,,,-99.99,,2013-05-15 02:11:00,
2013-05-14 21:21:00,80.0,56.0,-100.00,NNE,20,17.0,24.0,44,-99.99,,,-99.99,,2013-05-15 02:21:00,
2013-05-14 21:32:00,80.0,56.0,-100.00,NNE,20,17.0,24.0,44,-99.99,,,-99.99,,2013-05-15 02:32:00,
2013-05-14 21:42:00,80.0,57.0,-100.00,NNE,20,18.0,26.0,46,-99.99,,,-99.99,,2013-05-15 02:42:00,
2013-05-14 21:52:00,79.0,58.0,-100.00,North,10,14.0,21.0,48,-99.99,,,-99.99,,2013-05-15 02:52:00,
2013-05-14 22:01:00,79.0,58.0,-100.00,North,10,14.0,21.0,48,-99.99,,,-99.99,,2013-05-15 03:01:00,
2013-05-14 22:12:00,78.0,58.0,-100.00,North,10,11.0,19.0,50,-99.99,,,-99.99,,2013-05-15 03:12:00,
2013-05-14 22:22:00,78.0,58.0,-100.00,NNE,15,14.0,19.0,51,-99.99,,,-99.99,,2013-05-15 03:22:00,
2013-05-14 22:33:00,78.0,58.0,-100.00,NNE,15,14.0,19.0,51,-99.99,,,-99.99,,2013-05-15 03:33:00,
2013-05-14 22:44:00,78.0,58.0,-100.00,North,10,14.0,17.0,51,-99.99,,,-99.99,,2013-05-15 03:44:00,
2013-05-14 22:54:00,78.0,58.0,-100.00,NNE,15,11.0,21.0,51,-99.99,,,-99.99,,2013-05-15 03:54:00,
2013-05-14 23:03:00,78.0,58.0,-100.00,NNE,15,11.0,21.0,51,-99.99,,,-99.99,,2013-05-15 04:03:00,
2013-05-14 23:12:00,78.0,58.0,-100.00,North,10,4.0,16.0,51,-99.99,,,-99.99,,2013-05-15 04:12:00,
2013-05-14 23:24:00,76.0,58.0,-100.00,North,0,3.0,11.0,54,-99.99,,,-99.99,,2013-05-15 04:24:00,
2013-05-14 23:33:00,76.0,58.0,-100.00,North,0,3.0,11.0,54,-99.99,,,-99.99,,2013-05-15 04:33:00,
2013-05-14 23:42:00,78.0,58.0,-100.00,North,5,7.0,19.0,51,-99.99,,,-99.99,,2013-05-15 04:42:00,
2013-05-14 23:52:00,78.0,58.0,-100.00,NNE,25,14.0,21.0,50,-99.99,,,-99.99,,2013-05-15 04:52:00,